Location: Spangle
(47.4302°N, 117.3779°W)
Time: 12:21:53
(UTC+00:00)

ISS - Pass Details

Date: 22 April 2026
Orbit: 414 x 424 km, 51.6° (Epoch: 11 May)

Event Time Altitude Azimuth Distance (km) Brightness Sun altitude
Exits shadow 11:14:25 26° 196° (SSW) 863 -2.6 -14.7°
Maximum altitude 11:15:47 40° 146° (SE) 636 -2.9 -14.5°
Drops below altitude 10° 11:18:58 10° 75° (ENE) 1,505 0.2 -14.1°
Sets 11:21:09 0° 68° (ENE) 2,375 1.7 -13.8°
